Wind_Speed
11 11 10 10 9 7 7 6 5 6 6 8 9 10 10 11 12 12 12 12 11 11 11 11 10 9 9 9 9 8 7 7 6 6 6 5 5 5 5 4 4 4 4
11 11 10 10 9 8 6 6 5 6 7 8 9 9 9 11 12 12 12 11 11 10 10 10 10 9 8 8 8 7 7 6 6 6 6 5 4 5 4 4 4 4 3
12 11 10 10 9 8 7 5 5 7 7 8 9 9 9 11 12 12 12 11 10 10 10 10 9 8 8 7 7 7 7 6 6 6 5 5 4 4 4 4 3 3 3
12 11 11 10 9 9 8 6 6 7 8 9 9 9 10 11 11 12 11 10 10 9 9 9 8 8 7 7 7 7 6 5 5 5 4 4 3 3 3 3 2 3 3
13 12 12 11 10 9 9 7 7 8 9 9 9 10 10 10 9 11 11 10 9 9 9 8 8 8 7 7 7 6 5 4 5 4 4 3 3 3 3 3 2 3 3
14 13 12 11 11 11 10 9 8 9 10 10 10 10 10 10 10 10 10 10 9 9 9 8 8 7 7 7 6 5 4 5 4 4 3 3 3 2 2 2 2 2 3
16 15 14 13 12 11 10 10 10 9 10 10 9 10 9 9 9 9 9 9 9 9 8 9 8 7 7 6 5 5 5 4 4 3 3 3 3 2 2 2 2 3 3
16 16 15 14 13 13 13 12 11 10 10 9 9 9 9 9 9 9 9 8 7 7 8 8 8 7 6 5 4 4 3 3 3 3 3 3 3 3 3 3 3 3 3
16 16 15 14 15 14 13 12 12 11 10 9 9 9 9 9 9 8 8 8 7 7 8 7 6 5 6 5 3 3 3 2 2 3 3 3 3 2 2 2 4 4 5
17 16 15 13 13 13 13 12 11 12 11 10 8 8 8 8 8 8 7 7 7 6 6 5 5 5 5 4 3 3 3 3 3 3 3 3 3 3 3 3 4 5 5
17 16 15 13 13 12 12 11 11 11 11 10 9 8 8 7 7 6 6 6 6 6 6 5 5 5 4 4 4 3 3 3 3 3 3 3 3 3 3 3 4 5 4
18 17 16 14 13 12 12 11 11 9 9 9 8 8 8 7 6 6 6 6 5 6 5 5 5 4 4 3 3 3 3 3 3 3 4 4 4 4 3 3 4 4 4
18 17 16 15 14 12 12 11 11 9 8 8 8 8 7 6 5 5 5 5 5 5 5 5 4 4 3 3 3 3 3 3 3 3 4 4 4 4 4 4 4 4 4
19 18 17 15 14 13 12 11 10 9 8 7 7 7 6 6 5 5 5 4 4 4 4 3 3 3 3 3 3 3 3 3 3 3 4 4 4 4 4 4 4 5 4
19 18 17 16 15 14 12 11 10 9 8 7 6 6 6 5 5 5 5 4 3 3 3 3 3 2 2 2 3 3 3 3 3 3 4 4 4 4 5 4 5 5 5
19 18 17 16 15 14 13 12 11 10 9 8 7 6 5 5 5 4 4 3 3 3 3 3 3 2 2 2 2 3 3 3 4 4 4 4 5 5 5 4 5 6 6
18 18 17 16 15 15 13 12 11 10 9 8 8 7 6 5 4 4 2 2 2 2 2 2 2 2 2 2 2 3 3 4 4 4 4 4 5 5 5 5 5 5 6
18 18 17 16 15 14 13 13 11 10 9 8 8 7 6 5 4 3 2 2 2 2 2 2 2 2 2 2 2 3 3 4 4 4 4 4 4 4 4 5 5 5 5
17 17 17 16 16 14 13 12 12 10 10 9 8 7 6 4 4 4 3 2 2 1 1 1 2 2 2 2 3 3 4 4 4 4 4 4 4 4 5 5 5 6 5
17 17 17 16 15 15 14 13 12 11 10 9 9 8 7 6 5 4 3 2 2 0 1 1 2 2 2 2 3 4 4 4 4 4 4 4 5 5 6 6 6 6 6
17 17 17 16 15 15 14 14 13 12 10 9 9 8 8 7 6 4 3 2 2 1 1 1 2 2 2 3 4 4 4 4 4 5 5 5 6 6 6 6 6 7 6
16 16 16 15 14 14 13 13 12 11 10 9 8 8 8 7 6 5 4 3 3 2 1 2 2 2 2 3 3 3 4 5 5 5 6 6 6 7 7 7 6 6 7
14 14 14 14 14 13 12 12 12 12 10 9 8 8 8 6 6 6 5 4 3 3 2 3 3 2 2 2 2 2 3 4 5 6 6 7 7 8 8 8 8 7 8
13 13 13 13 13 13 13 12 12 11 10 9 8 8 9 7 6 6 5 4 4 4 3 3 4 4 3 2 2 2 3 3 4 5 6 7 8 8 8 8 8 9 10
13 13 13 12 13 12 13 12 11 11 10 10 9 9 8 6 6 6 6 6 5 4 4 4 4 4 3 2 2 2 3 4 5 5 6 7 7 8 8 8 8 9 10
12 12 12 12 12 12 12 12 10 10 10 11 11 10 9 6 6 6 6 5 5 5 5 5 5 5 4 3 3 4 4 4 5 6 6 6 7 7 8 9 9 9 10
Wind_Direction
62 68 74 71 70 81 92 107 126 138 149 150 150 150 150 147 148 151 151 150 147 146 150 151 148 148 148 149 148 150 147 145 146 144 144 145 145 142 143 142 144 148 135
61 65 68 67 67 75 86 106 122 134 148 150 149 148 151 151 150 152 153 152 151 148 149 153 151 150 150 151 153 152 149 149 148 142 142 140 139 143 151 152 157 156 147
60 61 63 61 65 71 79 98 113 122 133 146 150 151 152 152 151 152 155 154 153 149 149 151 152 149 149 148 149 151 150 150 144 138 141 141 141 149 153 154 159 165 162
59 61 64 65 67 68 72 84 105 125 136 143 146 145 144 147 149 152 153 155 154 155 158 154 152 147 148 149 149 149 147 149 141 136 145 148 148 159 164 160 162 183 176
58 58 59 65 67 68 68 80 97 116 131 137 141 140 142 145 144 145 148 151 155 156 155 157 153 153 151 150 153 154 156 158 148 142 148 152 158 164 173 174 162 171 185
57 58 60 66 70 71 71 75 88 108 123 130 133 136 142 147 149 147 146 149 151 160 161 157 153 154 153 150 155 157 164 161 159 156 155 167 160 167 170 174 169 180 186
59 59 63 68 74 73 72 78 88 104 116 118 125 130 136 144 151 151 148 146 146 149 154 153 155 156 153 147 152 156 172 171 165 167 177 180 176 177 180 172 172 168 170
60 62 65 69 71 73 75 77 79 89 105 117 120 126 133 136 141 147 148 146 146 151 153 154 155 161 160 152 159 167 165 170 176 174 175 178 172 177 167 152 155 148 157
60 63 64 68 70 68 70 75 81 88 98 104 113 123 129 132 136 144 152 155 156 160 158 156 159 162 164 165 165 174 172 172 173 177 172 175 181 179 170 164 166 152 150
58 62 64 63 65 64 70 77 85 88 88 93 109 122 128 135 142 144 149 157 160 158 161 165 163 159 161 165 172 173 174 180 177 180 182 184 189 183 174 167 164 161 150
55 61 66 63 60 60 64 72 82 87 85 87 98 116 130 135 142 146 144 152 155 154 153 158 158 155 157 166 177 184 186 194 195 196 193 198 194 183 174 170 168 169 166
51 54 60 66 64 64 67 71 79 87 88 90 97 105 120 131 131 136 144 151 155 160 157 153 155 153 155 162 173 175 189 194 194 204 204 201 199 194 186 176 177 178 184
49 50 53 62 64 65 67 72 76 82 89 92 99 104 105 115 119 126 136 148 156 162 158 158 168 165 170 175 180 191 203 201 204 210 206 203 205 202 195 195 196 200 204
50 50 52 56 61 65 68 70 71 76 79 83 93 99 101 106 116 126 129 133 147 161 162 165 182 186 177 187 192 199 216 221 230 218 213 207 211 210 209 214 214 214 217
49 51 52 54 57 60 66 69 72 71 70 74 83 90 96 103 115 113 119 132 142 158 171 169 170 176 187 203 207 212 225 239 230 228 219 217 222 222 222 225 224 223 226
46 48 49 52 54 56 59 61 62 67 70 71 77 84 92 102 110 111 109 115 151 165 168 168 169 181 209 221 223 221 225 232 231 228 229 231 229 230 231 233 231 229 231
44 45 46 49 49 51 53 56 59 61 64 67 67 72 83 86 90 101 119 131 148 157 163 181 194 202 209 229 235 227 222 225 225 221 225 233 235 234 234 233 233 233 235
40 41 43 46 47 48 50 50 53 58 60 62 62 67 74 74 72 79 99 110 114 150 179 197 222 229 231 233 244 238 230 224 225 225 225 232 233 233 232 232 234 235 240
38 39 41 43 46 47 48 50 51 53 55 57 59 62 63 60 61 63 64 70 79 134 204 243 242 265 272 256 250 246 240 232 229 233 224 221 228 232 232 239 243 245 242
37 38 40 42 45 46 47 49 48 47 47 50 50 49 50 56 59 51 58 49 43 17 311 297 261 272 282 267 269 267 255 241 232 226 219 223 233 240 240 242 246 248 246
36 38 39 40 45 47 46 45 41 39 40 42 43 42 44 49 50 48 58 52 28 16 6 317 278 266 279 278 278 272 253 243 232 230 229 232 235 244 245 242 248 248 249
34 35 36 38 40 41 40 40 36 33 34 36 40 41 40 42 41 40 45 43 33 26 18 350 321 310 304 281 270 252 238 240 245 245 239 238 242 248 249 249 254 248 249
27 31 32 32 35 34 32 33 29 28 29 30 34 35 31 35 38 33 30 28 32 32 20 7 352 341 345 321 285 263 251 243 249 253 248 246 247 247 251 250 250 251 253
20 24 26 25 26 27 24 26 25 25 27 26 25 24 22 24 25 28 23 23 28 20 12 3 2 352 343 349 321 284 268 258 259 256 260 260 255 252 254 250 250 249 251
14 16 18 19 17 17 16 18 24 27 23 22 19 16 15 12 16 20 17 20 20 14 13 8 3 1 352 341 331 309 284 269 264 262 264 266 265 257 253 254 257 256 253
5 6 10 13 12 13 13 16 19 20 21 18 16 13 9 6 6 6 3 6 8 6 1 0 357 356 343 324 311 305 300 295 281 275 271 267 265 264 259 259 261 260 258
Height
5875 5873 5872 5872 5871 5871 5871 5871 5871 5871 5872 5872 5873 5874 5874 5875 5877 5878 5880 5881 5882 5883 5884 5885 5886 5886 5887 5888 5889 5890 5890 5890 5891 5891 5891 5892 5892 5891 5891 5891 5892 5892 5892
5875 5874 5873 5873 5872 5872 5872 5872 5872 5872 5872 5873 5874 5874 5875 5876 5877 5879 5880 5882 5883 5884 5885 5886 5887 5887 5888 5889 5890 5890 5891 5891 5891 5891 5892 5892 5892 5891 5892 5892 5892 5892 5892
5876 5875 5874 5874 5874 5873 5872 5872 5872 5872 5872 5873 5874 5875 5876 5877 5878 5880 5881 5883 5884 5885 5886 5887 5887 5888 5889 5890 5890 5891 5891 5891 5891 5892 5892 5892 5892 5892 5892 5892 5892 5892 5892
5878 5877 5876 5875 5875 5874 5873 5872 5871 5870 5872 5873 5874 5876 5877 5878 5879 5881 5882 5883 5884 5885 5886 5887 5888 5889 5890 5890 5891 5891 5891 5891 5892 5892 5892 5892 5892 5892 5892 5892 5892 5892 5892
5880 5878 5877 5877 5876 5875 5874 5873 5871 5870 5872 5874 5875 5877 5878 5879 5880 5882 5883 5884 5885 5886 5887 5887 5888 5889 5890 5891 5891 5892 5892 5892 5892 5892 5892 5892 5892 5892 5892 5892 5892 5892 5892
5882 5880 5879 5878 5877 5877 5876 5874 5873 5872 5874 5875 5876 5878 5879 5880 5881 5883 5883 5884 5885 5886 5887 5887 5888 5889 5890 5891 5891 5891 5891 5891 5892 5892 5892 5892 5892 5892 5892 5892 5892 5892 5892
5884 5882 5881 5880 5879 5878 5877 5877 5876 5875 5876 5877 5878 5879 5880 5881 5882 5883 5884 5885 5885 5886 5887 5888 5889 5890 5890 5891 5891 5891 5891 5891 5892 5892 5891 5891 5892 5892 5892 5892 5892 5892 5892
5886 5885 5883 5882 5882 5881 5879 5879 5879 5878 5879 5879 5880 5881 5881 5882 5883 5884 5885 5886 5887 5887 5888 5889 5890 5890 5891 5891 5891 5891 5891 5890 5891 5891 5891 5891 5891 5892 5892 5892 5892 5892 5892
5888 5887 5886 5885 5884 5883 5881 5881 5880 5880 5881 5881 5881 5882 5883 5883 5884 5885 5885 5886 5887 5888 5889 5889 5890 5890 5891 5891 5891 5891 5891 5891 5891 5891 5891 5891 5891 5892 5892 5892 5892 5892 5892
5891 5889 5888 5887 5886 5885 5884 5884 5883 5883 5883 5883 5883 5883 5884 5884 5885 5885 5886 5886 5887 5888 5889 5889 5890 5890 5890 5891 5891 5891 5891 5891 5891 5891 5891 5892 5892 5892 5892 5892 5892 5892 5892
5893 5892 5890 5889 5888 5887 5886 5886 5885 5885 5885 5885 5884 5884 5885 5885 5886 5886 5886 5886 5887 5888 5889 5889 5890 5890 5890 5891 5891 5890 5890 5891 5891 5891 5891 5891 5892 5892 5892 5892 5892 5892 5892
5896 5894 5892 5891 5890 5889 5888 5887 5887 5887 5886 5886 5886 5886 5885 5886 5886 5887 5887 5887 5888 5888 5889 5889 5890 5890 5890 5890 5890 5890 5890 5890 5890 5890 5890 5891 5891 5891 5891 5892 5892 5892 5892
5899 5896 5894 5893 5892 5891 5890 5889 5889 5888 5888 5888 5887 5887 5887 5887 5887 5887 5888 5888 5888 5889 5889 5889 5889 5890 5890 5890 5890 5890 5890 5889 5889 5890 5890 5890 5891 5891 5891 5891 5891 5892 5892
5901 5899 5897 5895 5894 5893 5892 5891 5890 5890 5889 5889 5889 5888 5888 5888 5888 5888 5888 5888 5889 5889 5889 5889 5889 5889 5890 5890 5890 5889 5889 5889 5889 5889 5890 5890 5890 5890 5890 5890 5891 5891 5891
5904 5902 5900 5898 5896 5895 5893 5892 5892 5891 5890 5890 5890 5889 5889 5889 5888 5889 5889 5889 5889 5889 5889 5889 5889 5890 5890 5890 5889 5889 5889 5888 5888 5889 5889 5889 5889 5890 5890 5890 5890 5890 5890
5905 5903 5901 5900 5898 5897 5895 5894 5893 5892 5892 5891 5890 5890 5890 5889 5889 5889 5889 5889 5889 5889 5889 5889 5889 5889 5889 5889 5889 5888 5888 5887 5887 5887 5888 5888 5888 5889 5889 5889 5889 5889 5889
5907 5905 5903 5901 5900 5899 5897 5896 5895 5894 5893 5892 5892 5891 5891 5890 5890 5889 5889 5889 5889 5889 5889 5889 5889 5889 5888 5888 5888 5887 5887 5887 5886 5886 5887 5887 5887 5888 5888 5888 5888 5888 5888
5910 5907 5905 5903 5902 5900 5899 5898 5897 5896 5894 5894 5893 5892 5892 5891 5891 5890 5890 5889 5889 5888 5889 5888 5888 5888 5888 5887 5886 5886 5886 5886 5886 5885 5886 5886 5886 5886 5887 5887 5887 5887 5887
5912 5909 5907 5905 5903 5902 5901 5900 5898 5897 5896 5895 5894 5893 5892 5892 5891 5890 5890 5889 5888 5888 5888 5888 5887 5887 5886 5886 5885 5885 5885 5885 5884 5884 5884 5885 5885 5885 5885 5886 5885 5885 5885
5914 5911 5909 5907 5905 5904 5902 5901 5900 5899 5897 5896 5895 5894 5893 5892 5891 5890 5890 5889 5888 5888 5887 5887 5886 5886 5886 5885 5884 5884 5884 5884 5883 5883 5883 5883 5884 5884 5884 5884 5884 5884 5884
5916 5913 5911 5909 5907 5906 5904 5903 5901 5900 5899 5897 5896 5895 5894 5893 5891 5890 5889 5888 5888 5887 5886 5886 5886 5885 5885 5884 5883 5883 5883 5883 5882 5882 5882 5882 5882 5882 5882 5882 5882 5882 5882
5918 5916 5913 5911 5909 5907 5906 5904 5903 5901 5900 5898 5897 5896 5894 5893 5892 5890 5889 5888 5887 5886 5886 5885 5885 5884 5883 5883 5882 5882 5882 5882 5881 5881 5881 5881 5881 5881 5881 5881 5881 5881 5881
5920 5917 5915 5913 5911 5909 5907 5906 5904 5902 5900 5899 5898 5896 5895 5893 5892 5890 5889 5888 5887 5886 5885 5885 5884 5883 5882 5881 5881 5881 5881 5881 5881 5880 5880 5880 5879 5879 5879 5879 5879 5879 5879
5921 5918 5916 5914 5912 5910 5908 5906 5904 5903 5901 5899 5898 5896 5895 5894 5892 5891 5890 5888 5887 5886 5885 5884 5884 5883 5882 5881 5880 5880 5880 5879 5879 5879 5879 5878 5877 5877 5877 5876 5877 5877 5876
5921 5919 5917 5915 5913 5911 5909 5907 5905 5903 5901 5899 5898 5896 5895 5894 5893 5891 5890 5889 5887 5886 5885 5884 5883 5882 5881 5880 5880 5879 5879 5878 5878 5878 5877 5877 5876 5875 5875 5875 5874 5874 5873
5922 5920 5917 5915 5913 5911 5910 5907 5905 5903 5901 5900 5898 5896 5895 5894 5892 5891 5890 5888 5887 5886 5885 5884 5883 5882 5881 5880 5879 5878 5878 5877 5876 5876 5875 5875 5874 5874 5873 5873 5872 5872 5871